Location: Frauenfeld
(47.6120°N, 8.9070°E)
Time: 20:27:33
(UTC+00:00)

Daily predictions for brighter satellites

Satellite Brightness Start Highest point End
(mag) Time Altitude Azimuth Time Altitude Azimuth Time Altitude Azimuth
Meteor 2-15 Rocket 4.4 19:13:16 10° S 19:19:19 80° E 19:25:26 10° NNE
SJ-6B 3.1 19:16:07 10° S 19:19:57 73° WSW 19:23:56 10° NNW
CZ-2C R/B 4.4 19:18:43 10° N 19:23:36 38° WNW 19:28:34 10° SW
SL-08 ROCKET BODY 4.4 19:18:50 10° N 19:24:47 73° E 19:30:37 10° SSE
Cosmos 1408 Rocket 4.4 19:20:30 10° NNW 19:24:47 53° W 19:29:05 10° S
USA 290 3.5 19:24:22 10° N 19:27:14 28° ENE 19:30:05 10° ESE
Terra 4.0 19:26:09 10° ENE 19:27:27 11° NE 19:28:46 10° NE
Cosmos 921 Rocket 4.5 19:24:14 10° NW 19:28:10 36° W 19:32:02 10° SSW
USA 307 4.4 19:24:44 10° WNW 19:28:40 34° N 19:32:36 10° ENE
Cosmos 1842 Rocket 4.1 19:24:59 10° SSW 19:29:26 66° WNW 19:33:55 10° N
CREW DRAGON DEMO-1 DEB 4.1 19:27:13 10° WNW 19:29:40 33° N 19:32:08 10° ENE
Ariane Rocket 3.0 19:24:38 10° SSE 19:29:41 87° ENE 19:34:47 10° NNW
Cosmos 2263 Rocket 3.8 19:27:21 10° WSW 19:32:34 40° NW 19:37:50 10° NNE
FALCON 9 DEB 3.8 19:29:55 10° WNW 19:32:47 37° SW 19:35:38 10° SSE
Cosmos 1606 2.6 19:31:31 10° S 19:35:17 80° E 19:39:05 10° NNE
Cosmos 1844 Rocket 2.7 19:31:50 10° S 19:37:16 59° ESE 19:42:46 10° NNE
SPOT 1/Viking Rocket 4.3 19:36:15 10° SE 19:41:02 38° ENE 19:45:49 10° N
SL-4 R/B 2.8 19:37:10 10° WNW 19:41:23 48° SW 19:45:35 11° SE
USA 308 4.4 19:38:17 10° WNW 19:42:14 35° N 19:46:12 10° ENE
Cosmos 1805 Rocket 3.5 19:38:14 10° N 19:42:35 72° ENE 19:46:56 10° SSE
Cosmos 1386 Rocket 4.5 19:38:18 10° N 19:44:20 70° E 19:50:23 10° SSE
X-37B 0.8 19:41:57 10° W 19:45:05 53° S 19:47:53 12° ESE
ARIANE 5 R/B 3.9 19:43:07 11° ESE 19:46:27 26° ENE 19:50:03 10° N
Cosmos 1633 Rocket 3.9 19:46:57 10° N 19:51:00 35° ENE 19:54:17 14° SE
Cosmos 1745 Rocket 4.0 19:45:19 10° N 19:51:35 81° E 19:57:43 10° SSE
Cosmos 1709 Rocket 4.2 19:48:24 10° N 19:54:22 51° ENE 19:59:47 12° SSE
SPOT 3 Rocket 3.5 19:49:20 10° SSE 19:54:28 77° ENE 19:59:39 10° NNW
Resurs 1-3 4.2 19:52:25 10° S 19:56:43 56° W 20:01:03 10° NNW
Landsat 7 3.8 19:52:36 10° SSE 19:57:15 70° ENE 20:02:01 10° N
Cosmos 1844 3.7 19:51:47 10° SSW 19:57:29 69° ESE 20:03:08 10° NNE
Cosmos 968 Rocket 3.6 19:53:01 10° SSW 19:58:16 82° WNW 20:03:33 10° NNE
BREEZE-M DEB (TANK) 4.1 19:54:43 10° W 19:58:58 63° SSW 20:06:54 11° ESE
ATLAS 5 CENTAUR R/B 2.4 19:54:49 10° NW 20:00:18 72° NE 20:05:41 15° SE
NOSS 3-3 (A) 4.5 19:57:19 10° S 20:02:20 33° ESE 20:07:56 10° NE
NOSS 3-3 (C) 4.5 19:57:25 10° S 20:02:27 33° ESE 20:08:03 10° NE
Cosmos 1328 Rocket 4.4 19:59:49 15° SE 20:02:53 31° E 20:06:48 10° NNE
ATLAS 2AS CENTAUR R/B 4.4 19:58:18 10° NW 20:04:45 28° NNE 20:10:49 10° ENE
BREEZE M DEB (TANK) 4.3 20:00:53 10° WSW 20:04:53 86° NNW 20:19:08 10° ENE
Cosmos 1486 Rocket 4.1 20:00:28 10° SSW 20:05:48 87° WNW 20:11:11 10° NNE
IGS 5A 3.5 20:04:31 11° S 20:08:29 81° WSW 20:12:40 10° NNW
Meteor 1-26 Rocket 4.4 20:03:03 10° S 20:08:34 52° E 20:13:57 10° NNE
CARTOSAT-1 4.3 20:07:01 18° SE 20:09:50 38° ENE 20:13:51 10° N
Cosmos 1833 Rocket 3.7 20:04:44 10° NNW 20:09:54 35° NE 20:14:00 15° ESE
Cosmos 2315 Rocket 4.2 20:05:06 10° SSE 20:11:15 54° E 20:17:27 10° NNE
S3M 4.1 20:05:36 10° S 20:11:59 85° W 20:18:22 10° N
BREEZE-M R/B 1.6 20:10:42 10° WSW 20:13:14 58° SSE 20:15:12 14° ENE
Cosmos 1666 4.4 20:13:18 10° NNE 20:16:01 19° ENE 20:17:21 16° E
Cosmos 1666 Rocket 3.5 20:12:16 10° N 20:16:43 76° E 20:19:58 18° SSE
Meteor 2-17 Rocket 4.4 20:13:32 10° N 20:19:45 82° E 20:25:04 14° SSE
Cosmos 1933 3.5 20:18:20 10° SSW 20:22:23 75° W 20:26:26 10° N
USA 245 1.9 20:23:48 45° SE 20:24:19 67° ENE 20:26:33 10° N
USA 305 4.0 20:20:34 10° WNW 20:24:37 40° NNE 20:28:37 10° E
Cosmos 783 Rocket 4.5 20:20:43 10° NNW 20:26:00 77° ENE 20:29:28 22° SSE
Cosmos 1242 Rocket 2.6 20:24:21 10° SSW 20:27:57 75° WNW 20:31:31 10° N
BREEZE M DEB (TANK) 2.0 20:28:03 10° WNW 20:32:55 68° N 20:34:07 26° E
Cosmos 773 Rocket 4.1 20:28:30 10° NNW 20:33:49 72° ENE 20:37:01 24° SSE
Resurs 01 Rocket 2.8 20:29:57 10° SSW 20:34:09 40° W 20:38:21 10° NNW
Spot 2 Rocket 3.4 20:34:12 21° SSE 20:37:36 85° ENE 20:42:41 10° NNW
OE (NEXTSAT) 4.3 20:35:15 10° W 20:38:41 65° S 20:39:58 35° ESE
SJ 16-02 2.6 20:38:19 22° ESE 20:38:42 23° E 20:42:10 10° NE
Sich 1 4.3 20:34:52 10° NNW 20:38:53 38° W 20:42:55 10° SSW
COSMOS 2406 3.5 20:34:53 10° NNW 20:40:28 55° ENE 20:43:43 24° SE
Cosmos 2082 Rocket 3.3 20:38:03 10° NNW 20:43:08 33° NE 20:46:29 18° ESE
USA 306 3.8 20:39:43 10° WNW 20:43:50 45° NNE 20:47:01 16° E
Meteor 2-6 Rocket 4.5 20:41:14 25° SSE 20:44:02 46° E 20:49:15 10° NNE
Cosmos 1500 3.0 20:41:56 10° N 20:45:42 78° E 20:47:10 35° SSE
CZ-4C R/B 3.1 20:38:36 10° NW 20:45:43 74° NE 20:51:18 23° SE
Cosmos 1782 2.9 20:43:16 16° SSW 20:46:28 74° W 20:50:28 10° N
ERS-1 Rocket 2.9 20:50:52 28° SSE 20:53:33 80° ENE 20:58:35 10° NNW
SPOT 5 3.0 20:52:52 29° SSE 20:55:31 81° ENE 21:00:48 10° NNW
H-2A R/B 3.9 20:52:59 10° NNE 20:56:59 41° E 20:57:49 37° SE
Meteor 1-11 Rocket 4.3 20:54:16 10° N 21:00:02 47° ENE 21:02:44 29° SE
Cosmos 1271 Rocket 3.4 21:00:22 36° ESE 21:00:47 37° E 21:04:30 10° NNE
Cosmos 1151 Rocket 3.7 20:58:03 12° SSW 21:01:57 53° WNW 21:06:15 10° N
Cosmos 1777 Rocket 3.9 20:58:39 21° S 21:02:11 70° ESE 21:07:22 10° NNE
Terra 1.8 21:02:22 35° SSE 21:04:20 70° ENE 21:09:06 10° N
CREW DRAGON DEMO-1 DEB 3.4 21:01:49 10° WNW 21:04:22 42° NNE 21:04:38 41° NNE
Cosmos 2278 Rocket 2.3 21:05:44 26° S 21:08:45 57° ESE 21:14:18 10° NE
USA 307 3.5 21:05:02 10° WNW 21:09:15 54° NNE 21:11:26 26° E
Cosmos 1340 Rocket 4.4 21:10:09 10° NNE 21:13:26 23° ENE 21:14:05 22° E
CZ-4B DEB 4.1 21:16:05 79° SSE 21:16:16 89° E 21:19:30 10° NNW
Cosmos 1515 Rocket 3.6 21:17:35 31° SSW 21:19:37 76° W 21:24:03 10° N
Cosmos 1544 4.4 21:17:51 10° NNE 21:20:55 26° ENE 21:20:55 26° ENE
X-37B 2.4 21:18:34 10° W 21:20:09 22° WSW 21:20:09 22° WSW
Cosmos 2084 3.3 21:17:53 12° SW 21:21:41 86° NW 21:25:58 10° NE
USA 308 3.2 21:18:30 10° WNW 21:22:46 62° NNE 21:24:24 35° E
ARIANE 5 R/B 3.8 21:20:39 22° SSW 21:22:47 36° W 21:26:47 10° NNW
Cosmos 1869 Rocket 3.8 21:18:54 10° N 21:23:08 50° ENE 21:23:54 44° ESE
Cosmos 1536 3.4 21:19:28 10° N 21:23:21 42° ENE 21:23:48 40° E
Meteor 1-10 Rocket 4.1 21:22:59 34° S 21:25:32 78° E 21:31:12 10° NNE
Cosmos 1437 4.4 21:25:46 22° WSW 21:26:39 26° WNW 21:29:07 10° NNW
Cosmos 1943 Rocket 3.9 21:30:26 16° E 21:30:26 16° E 21:33:21 10° ENE
Cosmos 2154 Rocket 4.0 21:24:08 10° N 21:30:29 70° E 21:33:03 38° SSE
Cosmos 1812 3.6 21:31:32 29° SW 21:33:03 46° WNW 21:36:49 10° N
Cosmos 2184 Rocket 4.1 21:32:15 10° NNW 21:38:29 74° W 21:41:19 34° S
ALOS 2 4.3 21:38:42 19° E 21:39:42 21° ENE 21:42:57 10° NNE
Cosmos 1707 Rocket 4.4 21:42:54 36° E 21:42:54 36° E 21:46:50 10° NNE
NOSS 3-4 (A) 3.8 21:36:28 10° NW 21:43:25 85° NE 21:47:02 35° SE
NOSS 3-4 (C) 3.8 21:36:34 10° NW 21:43:32 85° NE 21:47:08 35° SE
ATLAS 5 CENTAUR R/B 3.8 21:39:57 10° WNW 21:44:46 27° WSW 21:47:13 21° SSW
Cosmos 2074 Rocket 4.3 21:40:12 10° NNW 21:46:25 63° W 21:49:23 32° SSW
Cosmos 1666 3.8 21:48:17 10° NNW 21:51:41 34° W 21:52:11 32° WSW
Cosmos 2112 Rocket 4.4 21:47:05 10° NNW 21:52:22 55° ENE 21:53:50 42° ESE
Cosmos 1833 Rocket 3.3 21:48:36 10° NW 21:53:58 45° WSW 21:55:42 35° SSW
Nadezhda 1 Rocket 4.0 21:51:52 37° S 21:54:34 89° W 22:00:53 10° N
Cosmos 1238 Rocket 4.4 21:50:01 10° N 21:56:11 47° ENE 21:57:51 37° ESE
Cosmos 1743 3.1 21:53:18 10° N 21:56:52 52° ENE 21:56:52 52° ENE
ATLAS 2AS CENTAUR R/B 3.0 21:49:40 10° NW 21:57:07 68° NE 22:00:32 32° ESE
BREEZE-M DEB (TANK) 4.4 21:57:57 10° WNW 21:57:58 10° WNW 21:57:58 10° WNW
USA 215 3.8 21:55:02 12° E 22:00:57 56° NNE 22:07:20 10° NW
BREEZE-M DEB (TANK) 4.1 21:56:13 10° W 22:02:52 43° NNW 22:04:40 18° NE
Cosmos 2297 4.2 22:03:58 41° ESE 22:04:13 41° ESE 22:09:32 10° NE
USA 305 2.8 22:00:34 10° WNW 22:04:41 75° WSW 22:04:41 75° WSW
Cosmos 2181 Rocket 4.4 22:07:22 40° ESE 22:08:42 46° E 22:14:30 10° NNE
Cosmos 158 Rocket 4.3 22:10:08 10° NNW 22:14:49 47° WSW 22:15:28 44° SW
Cosmos 1733 Rocket 3.2 22:11:43 10° N 22:16:01 60° ENE 22:16:02 60° E
SJ 16-02 2.4 22:15:14 28° WSW 22:17:02 41° WNW 22:21:16 10° N
Cosmos 2228 Rocket 4.0 22:17:34 36° WSW 22:18:41 43° WNW 22:22:57 10° N
Cosmos 1680 Rocket 3.4 22:15:14 10° NNW 22:20:35 80° WSW 22:21:27 63° S
Meteor 1-27 Rocket 4.1 22:18:37 36° SW 22:20:55 63° WNW 22:26:48 10° N
Cosmos 2341 Rocket 4.0 22:14:51 10° N 22:21:18 86° E 22:23:08 50° SSE
Cosmos 2366 rocket 4.2 22:16:23 10° N 22:22:29 58° ENE 22:24:07 45° SE
USA 306 3.5 22:19:43 10° WNW 22:23:04 47° W 22:23:04 47° W
Cosmos 1937 Rocket 3.6 22:24:06 52° ESE 22:24:09 52° ESE 22:29:11 10° NNE
Cosmos 1818 4.1 22:20:25 10° NNW 22:25:49 54° NE 22:27:40 37° E
Cosmos 2082 Rocket 2.6 22:22:01 10° NW 22:27:23 47° WSW 22:28:19 43° SW
CZ-4C R/B 3.9 22:27:33 10° NW 22:34:07 34° WSW 22:36:28 29° SW
Gbstr 26 Del rocket 4.2 22:27:58 10° WNW 22:35:19 72° NNE 22:40:00 18° E
ERBS 4.1 22:33:52 10° NW 22:36:46 27° NNE 22:37:05 27° NNE
Cosmos 858 Rocket 4.4 22:37:14 64° SE 22:37:29 65° ESE 22:42:40 10° NNE
Cosmos 2218 Rocket 3.9 22:34:15 10° N 22:40:32 81° E 22:42:06 54° SSE
Meteor 1-19 Rocket 4.0 22:40:49 64° SE 22:41:26 71° E 22:46:49 10° NNE
Terra 4.0 22:41:15 14° WSW 22:42:35 15° W 22:45:24 10° NW
Okean 1 3.6 22:46:34 67° NNW 22:46:34 67° NNW 22:50:07 10° N
Cosmos 489 Rocket 4.4 22:41:30 10° NNW 22:47:46 78° ENE 22:49:22 52° SE
USA 307 4.3 22:45:09 10° WNW 22:47:30 28° W 22:47:30 28° W
Cosmos 1340 Rocket 4.0 22:46:15 10° NNW 22:49:40 33° W 22:49:40 33° W
Cosmos 1461 4.4 22:53:28 31° E 22:53:28 31° E 22:56:29 10° NE
Cosmos 2278 Rocket 3.9 22:48:18 10° WSW 22:53:11 29° NW 22:58:06 10° NNE
Spot 4 4.3 22:53:27 49° WSW 22:53:42 50° W 22:58:27 10° NNW
Cosmos 1862 Rocket 3.6 22:57:00 72° WNW 22:57:00 72° WNW 23:01:10 10° N
Cosmos 1703 Rocket 4.4 22:57:18 39° ENE 22:57:18 39° ENE 23:00:59 10° NNE
Cosmos 1898 Rocket 3.8 22:57:39 48° WSW 22:58:54 62° WNW 23:04:13 10° NNE
Cosmos 2369 Rocket 2.5 23:03:27 48° ESE 23:03:36 48° ESE 23:09:01 10° NE
COBE Rocket 3.8 23:07:04 76° SSW 23:07:26 83° WSW 23:12:36 10° NNW
RESURS DK-1 3.8 23:05:23 10° NNW 23:09:09 32° NE 23:09:53 30° ENE
Meteor 2-9 Rocket 4.3 23:03:59 10° NNW 23:09:43 62° W 23:10:35 55° SW
Gblst 52 Del rocket 4.5 23:03:05 10° WNW 23:09:55 78° NNE 23:14:42 17° ESE
SL-8 Rocket 4.4 23:03:56 10° NNW 23:10:05 55° W 23:11:34 45° SW
Cosmos 1975 3.4 23:08:57 10° NNW 23:12:12 52° NW 23:12:12 52° NW
Cosmos 1943 Rocket 2.1 23:11:55 61° SW 23:12:56 83° WNW 23:18:35 10° NNE
SL-27 R/B 4.5 23:10:58 10° N 23:13:17 22° NE 23:13:17 22° NE
Cosmos 2084 Rocket 3.8 23:09:44 10° NW 23:13:20 61° WNW 23:13:20 61° WNW
ALOS 2 3.2 23:16:05 47° W 23:16:05 47° W 23:20:00 10° NNW
SL-08 R/B 4.4 23:12:01 10° N 23:18:15 88° E 23:19:37 58° S
Cosmos 1867 4.5 23:18:57 35° ESE 23:18:57 35° ESE 23:23:27 10° NE
PSLV R/B 4.5 23:14:39 10° NNE 23:18:26 39° E 23:18:26 39° E
DNEPR-1 R/B 4.0 23:19:56 61° SW 23:20:57 84° NW 23:25:56 10° NE
Cosmos 44 3.9 23:15:52 10° NW 23:20:48 48° WSW 23:20:48 48° WSW
Meteor 2-4 Rocket 3.6 23:20:31 65° S 23:21:26 88° E 23:27:09 10° NNE
Okean 3 4.3 23:28:08 42° ENE 23:28:08 42° ENE 23:31:47 10° NNE
EO 1 Del DPAF 4.5 23:25:01 10° NNE 23:27:38 34° ENE 23:27:38 34° ENE
Okean 1-7 3.1 23:30:15 72° NNE 23:30:15 72° NNE 23:34:08 10° N
Cosmos 372 Rocket 3.9 23:30:36 69° WSW 23:31:05 76° WNW 23:36:14 10° NNE
ATLAS CENTAUR R/B 3.6 23:33:01 14° ENE 23:33:01 14° ENE 23:33:56 10° ENE
Helios 1A 4.4 23:31:38 27° E 23:32:20 29° ENE 23:35:57 10° N
Sich 1 Rocket 4.4 23:30:46 10° N 23:35:10 43° ENE 23:35:34 42° E
Cosmos 1125 Rocket 4.1 23:35:51 43° ESE 23:36:01 43° ESE 23:40:57 10° NE
SeaSat 1 2.3 23:33:04 10° NNE 23:38:02 81° ESE 23:38:19 77° SSE
Cosmos 494 Rocket 4.2 23:34:01 10° NNW 23:39:12 63° ENE 23:40:14 51° ESE
Cosmos 1656 Rocket 3.7 23:39:04 56° SE 23:39:25 58° ESE 23:44:50 10° NE
Cosmos 2242 Rocket 3.7 23:40:22 68° WNW 23:40:22 68° WNW 23:44:40 10° N
Cosmos 2239 Rocket 4.4 23:36:58 10° N 23:43:17 86° E 23:44:52 54° SSE
USA 215 3.2 23:42:21 50° SSE 23:43:55 64° SW 23:50:27 10° WNW
Cosmos 1833 4.2 23:40:18 10° NNW 23:46:05 79° ENE 23:47:33 52° SE
ATLAS 2AS CENTAUR R/B 3.5 23:41:19 10° NW 23:47:33 32° WSW 23:47:56 32° WSW
CZ-2D R/B 4.0 23:48:27 10° NE 23:52:14 19° E 23:53:55 16° ESE
